TimeCST,TemperatureF,Dew PointF,Humidity,Sea Level PressureIn,VisibilityMPH,Wind Direction,Wind SpeedMPH,Gust SpeedMPH,PrecipitationIn,Events,Conditions,WindDirDegrees,DateUTC
12:56 AM,32.9,29.1,86,30.31,10.0,Calm,Calm,-,N/A,,Clear,0,2013-03-09 06:56:00
1:56 AM,34.9,30.0,82,30.29,10.0,Calm,Calm,-,N/A,,Clear,0,2013-03-09 07:56:00
2:56 AM,36.0,32.0,86,30.26,10.0,Calm,Calm,-,N/A,,Clear,0,2013-03-09 08:56:00
3:56 AM,36.9,32.9,86,30.27,10.0,Calm,Calm,-,N/A,,Clear,0,2013-03-09 09:56:00
4:56 AM,37.9,32.9,82,30.27,10.0,Calm,Calm,-,N/A,,Clear,0,2013-03-09 10:56:00
6:56 AM,39.9,32.9,76,30.29,10.0,Calm,Calm,-,N/A,,Clear,0,2013-03-09 12:56:00
7:56 AM,43.0,32.9,68,30.30,8.0,Calm,Calm,-,N/A,,Clear,0,2013-03-09 13:56:00
8:56 AM,50.0,32.9,52,30.29,10.0,SE,5.8,-,N/A,,Clear,140,2013-03-09 14:56:00
9:56 AM,55.9,31.1,39,30.25,10.0,South,9.2,-,N/A,,Clear,180,2013-03-09 15:56:00
10:56 AM,61.0,31.1,32,30.26,10.0,South,8.1,-,N/A,,Clear,190,2013-03-09 16:56:00
11:56 AM,64.9,31.1,28,30.25,10.0,Variable,6.9,-,N/A,,Scattered Clouds,0,2013-03-09 17:56:00
12:56 PM,63.0,29.1,28,30.22,10.0,SW,6.9,-,N/A,,Scattered Clouds,220,2013-03-09 18:56:00
1:56 PM,63.9,30.0,28,30.19,10.0,South,8.1,-,N/A,,Clear,190,2013-03-09 19:56:00
2:56 PM,64.9,31.1,28,30.16,10.0,SSE,9.2,-,N/A,,Clear,160,2013-03-09 20:56:00
3:56 PM,64.9,31.1,28,30.15,10.0,South,12.7,-,N/A,,Clear,180,2013-03-09 21:56:00
4:56 PM,63.0,32.9,32,30.13,10.0,South,9.2,-,N/A,,Clear,180,2013-03-09 22:56:00
5:56 PM,61.0,34.0,36,30.14,10.0,South,4.6,-,N/A,,Clear,170,2013-03-09 23:56:00
6:56 PM,57.9,34.9,42,30.14,10.0,SSE,6.9,-,N/A,,Clear,160,2013-03-10 00:56:00
7:56 PM,55.9,34.9,45,30.13,10.0,SSE,6.9,-,N/A,,Clear,160,2013-03-10 01:56:00
8:56 PM,54.9,34.9,47,30.12,10.0,ESE,4.6,-,N/A,,Clear,120,2013-03-10 02:56:00
9:56 PM,54.0,36.0,51,30.12,10.0,Calm,Calm,-,N/A,,Clear,0,2013-03-10 03:56:00
10:56 PM,52.0,34.9,52,30.11,10.0,Calm,Calm,-,N/A,,Clear,0,2013-03-10 04:56:00
11:56 PM,52.9,36.0,53,30.10,10.0,SSE,5.8,-,N/A,,Clear,160,2013-03-10 05:56:00